This demonstration page uses our WeatherBlox Daily Observations layout. Learn more.

Hourly Observations for April 27, 2019

Temp ( °F °C ) Dew Point ( °F °C ) Humidity (%) Winds ( mph kmh ) Pressure ( in mb ) Visibility ( mi km ) Precip ( " mm )
12:15 am 00:15 Cloudy 55 13 45 7 67 67 WNW 12 19 29.65 1004 10 16.09344 0 0
12:35 am 00:35 Cloudy 55 13 45 7 67 67 WNW 10 17 29.68 1005 10 16.09344 0 0
12:55 am 00:55 Cloudy 54 12 46 8 77 77 W 14 22 29.68 1005 10 16.09344 0 0
1:15 am 01:15 Cloudy 54 12 48 9 82 82 W 10 17 29.68 1005 10 16.09344 0 0
1:35 am 01:35 Cloudy 54 12 48 9 82 82 WNW 12 19 29.68 1005 10 16.09344 0 0
1:55 am 01:55 Cloudy 54 12 48 9 82 82 W 13 20 29.68 1005 10 16.09344 0 0
2:15 am 02:15 Mostly Cloudy 54 12 46 8 77 77 WNW 9 15 29.68 1005 10 16.09344 0 0
2:35 am 02:35 Partly Cloudy 52 11 46 8 82 82 WNW 9 15 29.68 1005 10 16.09344 0 0
2:55 am 02:55 Clear 52 11 46 8 82 82 WNW 15 24 29.68 1005 10 16.09344 0 0
3:15 am 03:15 Clear 52 11 46 8 82 82 WNW 15 24 29.68 1005 10 16.09344 0 0
3:35 am 03:35 Clear 54 12 45 7 72 72 WNW 15 24 29.68 1005 10 16.09344 0 0
3:55 am 03:55 Clear 54 12 45 7 72 72 WNW 21 33 29.68 1005 10 16.09344 0 0
4:15 am 04:15 Clear 54 12 43 6 67 67 WNW 17 28 29.71 1006 10 16.09344 0 0
4:35 am 04:35 Clear 54 12 41 5 63 63 WNW 18 30 29.71 1006 10 16.09344 0 0
4:55 am 04:55 Clear 52 11 41 5 67 67 WNW 20 31 29.71 1006 10 16.09344 0 0
5:15 am 05:15 Clear 52 11 41 5 67 67 WNW 21 33 29.71 1006 10 16.09344 0 0
5:35 am 05:35 Clear 52 11 39 4 62 62 WNW 18 30 29.71 1006 10 16.09344 0 0
5:55 am 05:55 Clear 52 11 39 4 62 62 WNW 22 35 29.71 1006 10 16.09344 0 0
6:15 am 06:15 Clear 52 11 37 3 58 58 NW 18 30 29.74 1007 10 16.09344 0 0
6:35 am 06:35 Sunny 50 10 36 2 58 58 NW 17 28 29.74 1007 10 16.09344 0 0
6:55 am 06:55 Sunny 50 10 36 2 58 58 WNW 12 19 29.74 1007 10 16.09344 0 0
7:15 am 07:15 Sunny 52 11 36 2 54 54 WNW 15 24 29.77 1008 10 16.09344 0 0
7:35 am 07:35 Sunny 52 11 36 2 54 54 WNW 14 22 29.77 1008 10 16.09344 0 0
8:15 am 08:15 Sunny 54 12 34 1 47 47 WNW 17 28 29.77 1008 10 16.09344 0 0
8:35 am 08:35 Sunny 55 13 34 1 44 44 WNW 24 39 29.77 1008 10 16.09344 0 0
8:55 am 08:55 Sunny 55 13 34 1 44 44 WNW 20 31 29.77 1008 10 16.09344 0 0
9:15 am 09:15 Sunny 59 15 36 2 42 42 NW 16 26 29.77 1008 10 16.09344 0 0
9:35 am 09:35 Sunny 59 15 36 2 42 42 WNW 23 37 29.8 1009 10 16.09344 0 0
9:55 am 09:55 Sunny 59 15 36 2 42 42 WNW 18 30 29.77 1008 10 16.09344 0 0
10:15 am 10:15 Sunny 61 16 36 2 39 39 NW 26 43 29.77 1008 10 16.09344 0 0
10:35 am 10:35 Sunny 61 16 36 2 39 39 WNW 23 37 29.77 1008 10 16.09344 0 0
10:55 am 10:55 Sunny 61 16 36 2 39 39 WNW 17 28 29.77 1008 10 16.09344 0 0
11:15 am 11:15 Sunny 63 17 34 1 34 34 WNW 24 39 29.77 1008 10 16.09344 0 0
11:55 am 11:55 Sunny 63 17 34 1 34 34 WNW 25 41 29.77 1008 10 16.09344 0 0
12:15 pm 12:15 Sunny 64 18 34 1 32 32 WNW 31 50 29.77 1008 10 16.09344 0 0
12:35 pm 12:35 Sunny 63 17 32 0 32 32 NW 22 35 29.77 1008 10 16.09344 0 0
12:55 pm 12:55 Sunny 64 18 34 1 32 32 WNW 24 39 29.77 1008 10 16.09344 0 0
1:15 pm 13:15 Sunny 64 18 32 0 30 30 WNW 26 43 29.77 1008 10 16.09344 0 0
1:35 pm 13:35 Sunny 64 18 34 1 32 32 W 20 31 29.77 1008 10 16.09344 0 0
1:55 pm 13:55 Sunny 66 19 34 1 30 30 NW 23 37 29.74 1007 10 16.09344 0 0
2:15 pm 14:15 Sunny 66 19 32 0 28 28 NW 22 35 29.77 1008 10 16.09344 0 0
2:35 pm 14:35 Sunny 66 19 32 0 28 28 WNW 20 31 29.77 1008 10 16.09344 0 0
2:55 pm 14:55 Sunny 68 20 32 0 26 26 WNW 24 39 29.77 1008 10 16.09344 0 0
3:15 pm 15:15 Sunny 68 20 34 1 28 28 WNW 22 35 29.77 1008 10 16.09344 0 0
3:35 pm 15:35 Sunny 68 20 34 1 28 28 NW 15 24 29.77 1008 10 16.09344 0 0
3:55 pm 15:55 Sunny 68 20 32 0 26 26 WNW 16 26 29.77 1008 10 16.09344 0 0
4:15 pm 16:15 Sunny 70 21 34 1 27 27 NW 16 26 29.77 1008 10 16.09344 0 0
4:35 pm 16:35 Sunny 70 21 32 0 25 25 WNW 22 35 29.77 1008 10 16.09344 0 0
4:55 pm 16:55 Sunny 70 21 32 0 25 25 NW 21 33 29.77 1008 10 16.09344 0 0
5:15 pm 17:15 Sunny 70 21 36 2 29 29 NW 16 26 29.77 1008 10 16.09344 0 0
5:35 pm 17:35 Sunny 68 20 34 1 28 28 NW 12 19 29.8 1009 10 16.09344 0 0
5:55 pm 17:55 Sunny 68 20 32 0 26 26 NW 16 26 29.8 1009 10 16.09344 0 0
6:15 pm 18:15 Sunny 68 20 32 0 26 26 WNW 15 24 29.83 1010 10 16.09344 0 0
6:35 pm 18:35 Sunny 68 20 32 0 26 26 NW 14 22 29.83 1010 10 16.09344 0 0
6:55 pm 18:55 Sunny 66 19 32 0 28 28 NNW 9 15 29.83 1010 10 16.09344 0 0
7:15 pm 19:15 Sunny 64 18 32 0 30 30 NNW 8 13 29.83 1010 10 16.09344 0 0
7:35 pm 19:35 Sunny 64 18 32 0 30 30 NNW 8 13 29.83 1010 10 16.09344 0 0
7:55 pm 19:55 Sunny 63 17 32 0 32 32 NW 8 13 29.83 1010 10 16.09344 0 0
8:15 pm 20:15 Clear 64 18 32 0 30 30 NNW 8 13 29.83 1010 10 16.09344 0 0
8:35 pm 20:35 Mostly Cloudy 64 18 32 0 30 30 N 3 6 29.85 1011 10 16.09344 0 0
8:50 pm 20:50 Cloudy 64 18 32 0 30 30 NNW 5 7 29.85 1011 10 16.09344 0 0
9:15 pm 21:15 Cloudy 61 16 37 3 42 42 W 3 6 29.88 1012 10 16.09344 0 0
9:35 pm 21:35 Cloudy 61 16 37 3 42 42 W 3 6 29.88 1012 10 16.09344 0 0
9:55 pm 21:55 Cloudy 61 16 36 2 39 39 W 5 7 29.88 1012 10 16.09344 0 0
10:15 pm 22:15 Cloudy 59 15 41 5 51 51 NW 8 13 29.88 1012 10 16.09344 0 0
10:35 pm 22:35 Cloudy 61 16 37 3 42 42 WNW 7 11 29.91 1013 10 16.09344 0 0
10:55 pm 22:55 Cloudy 61 16 37 3 42 42 NNW 9 15 29.91 1013 10 16.09344 0 0
11:15 pm 23:15 Cloudy 59 15 43 6 55 55 NW 10 17 29.91 1013 10 16.09344 0 0
11:35 pm 23:35 Cloudy 57 14 45 7 63 63 NW 13 20 29.94 1014 10 16.09344 0 0
11:55 pm 23:55 Cloudy 55 13 45 7 67 67 NW 10 17 29.94 1014 10 16.09344 0 0

Powered by AerisWeather